Tracking 20241 objects as of 26-Jan-2020
HD Live streaming from Space Station
objects crossing your sky now

SL-8 R/B

Track SL-8 R/B now!
10-day predictions


NORAD ID: 18121
Int'l Code: 1987-051J
Perigee: 1,483.3 km
Apogee: 1,694.1 km
Inclination: 74.0 °
Period: 117.8 minutes
Semi major axis: 7959 km
RCS: 6.2494 m2 (large)
Launch date: June 16, 1987
Source: Commonwealth of Independent States (former USSR) (CIS)
Launch site: PLESETSK MISSILE AND SPACE COMPLEX (PKMTR)

Note: This is a ROCKET BODY
aabbcc
Your satellite tracking list
Your tracking list is empty




NASA's NSSDC Master Catalog

Two Line Element Set (TLE):
1 18121U 87051J   20025.54531516 -.00000080 +00000-0 -58718-3 0  9995
2 18121 074.0049 248.9227 0132395 218.6833 199.5327 12.22531413455258
Source of the keplerian elements: AFSPC